Location: Long Barn
(38.0930°N, 120.1344°W)
Time: 13:04:30
(UTC+00:00)

BlueWalker 3 - Visible Passes

Search period start: 21 January 2026 00:00
Search period end: 31 January 2026 00:00
Orbit: 451 x 463 km, 53.2° (Epoch: 20 January)

Date Brightness Start Highest point End Pass type
(mag) Time Alt. Az. Time Alt. Az. Time Alt. Az.
21 Jan 3.0 01:42:24 10° S 01:45:25 26° SE 01:48:24 10° ENE visible
21 Jan 3.5 03:19:33 10° W 03:22:09 30° WNW 03:22:09 30° WNW visible
22 Jan 2.7 02:43:56 10° WSW 02:47:20 41° NW 02:48:29 30° N visible
23 Jan 2.2 02:08:21 10° WSW 02:11:51 55° NW 02:14:42 15° NE visible
24 Jan 4.2 03:12:24 10° WNW 03:14:22 14° NNW 03:14:35 14° NNW visible
25 Jan 4.1 02:36:23 10° WNW 02:38:44 16° NNW 02:40:38 12° N visible
26 Jan 3.8 02:00:25 10° WNW 02:03:06 20° NNW 02:05:47 10° NNE visible
29 Jan 4.4 01:54:02 10° NNW 01:54:25 10° NNW 01:54:49 10° N visible
